This is the latest recevied weather packets stored in our database for station/object NEWPRT. If no packets are shown the sender has not sent any weather packets the latest 10 day(s).
| Time | Temp. | Humidity | Pressure | Rain* | Wind** | Luminosity | Snow |
|---|---|---|---|---|---|---|---|
| 1777676684 | - | 68% | 1018.7 hPa | 0 mm | - | - | - |
| 1777676361 | - | 68% | 1018.7 hPa | 0 mm | - | - | - |
| 1777676037 | - | 69% | 1019 hPa | 0 mm | - | - | - |
| 1777675714 | - | 68% | 1019 hPa | 0 mm | - | - | - |
| 1777675391 | - | 69% | 1018.9 hPa | 0 mm | - | - | - |
| 1777675068 | - | 69% | 1018.9 hPa | 0 mm | - | - | - |
| 1777674745 | - | 68% | 1019 hPa | 0 mm | - | - | - |
| 1777674423 | - | 68% | 1019 hPa | 0 mm | - | - | - |
| 1777674100 | - | 68% | 1019 hPa | 0 mm | - | - | - |
| 1777673777 | - | 67% | 1019 hPa | 0 mm | - | - | - |
| 1777673453 | - | 67% | 1019.1 hPa | 0 mm | - | - | - |
| 1777673131 | - | 66% | 1019.2 hPa | 0 mm | - | - | - |
| 1777672808 | - | 66% | 1019.1 hPa | 0 mm | - | - | - |
| 1777672484 | - | 67% | 1019.2 hPa | 0 mm | - | - | - |
| 1777672161 | - | 67% | 1019.2 hPa | 0 mm | - | - | - |
| 1777671838 | - | 67% | 1019.1 hPa | 0 mm | - | - | - |
| 1777671516 | - | 65% | 1019.2 hPa | 0 mm | - | - | - |
| 1777671193 | - | 68% | 1019.2 hPa | 0 mm | - | - | - |
| 1777670869 | - | 67% | 1019.1 hPa | 0 mm | - | - | - |
| 1777670548 | - | 67% | 1019.2 hPa | 0 mm | - | - | - |
| 1777670224 | - | 67% | 1019.3 hPa | 0 mm | - | - | - |
| 1777669900 | - | 67% | 1019 hPa | 0 mm | - | - | - |
| 1777669577 | - | 67% | 1019.2 hPa | 0 mm | - | - | - |
| 1777669254 | - | 67% | 1019.2 hPa | 0 mm | - | - | - |
| 1777668932 | - | 64% | 1019.3 hPa | 0 mm | - | - | - |
* Rain latest hour (hover to see other rain measurements)
** Current wind speed in m/s (hover to see current wind gust speed)